KJ7AZ-3 Weather Reports


time (UTC)temp
C
wind
direction
speed
KPH
gust
KPH
rain 1hr
cm
rain 24hr
cm
rain mn
cm
humidity
%
barometer
mb
20260507060530 6 66 12.9 11.3 0.00 0.00 0.00
20260507055031 6 76 9.7 8.0 0.00 0.00 0.00
20260507053532 6 108 8.0 8.0 0.00 0.00 0.00
20260507043537 8 68 6.4 4.8 0.00 0.00 0.00
20260507042038 9 101 3.2 3.2 0.00 0.00 0.00
20260507040539 10 69 8.0 9.7 0.00 0.00 0.00
20260507035040 11 118 0.0 0.0 0.00 0.00 0.00
20260507033541 13 107 1.6 6.4 0.00 0.00 0.00
20260507030543 15 75 8.0 4.8 0.00 0.00 0.00
20260507025043 15 136 6.4 6.4 0.00 0.00 0.00
20260507023544 16 127 6.4 9.7 0.00 0.00 0.00
20260507022045 16 207 6.4 3.2 0.00 0.00 0.00
20260507020546 16 259 0.0 0.0 0.00 0.00 0.00
20260507015046 17 270 3.2 4.8 0.00 0.00 0.00
20260507013547 17 257 4.8 3.2 0.00 0.00 0.00
20260507012048 18 259 1.6 1.6 0.00 0.00 0.00
20260507010548 17 250 4.8 3.2 0.00 0.00 0.00
20260507005048 18 239 4.8 8.0 0.00 0.00 0.00
20260507002049 20 211 9.7 8.0 0.00 0.00 0.00
20260507000549 21 257 9.7 14.5 0.00 0.00 0.00
20260506235050 21 201 8.0 9.7 0.00 0.00 0.00
20260506233550 20 276 8.0 4.8 0.00 0.00 0.00
20260506232050 22 278 8.0 4.8 0.00 0.00 0.00
20260506230551 22 249 11.3 17.7 0.00 0.00 0.00
20260506225051 21 262 14.5 12.9 0.00 0.00 0.00
20260506223552 21 278 4.8 16.1 0.00 0.00 0.00
20260506222052 21 253 8.0 9.7 0.00 0.00 0.00
20260506215054 21 212 16.1 12.9 0.00 0.00 0.00
20260506213554 21 225 8.0 9.7 0.00 0.00 0.00
20260506212055 20 262 11.3 9.7 0.00 0.00 0.00
20260506210556 21 245 9.7 20.9 0.00 0.00 0.00
20260506205056 19 257 4.8 4.8 0.00 0.00 0.00
20260506203557 20 305 3.2 6.4 0.00 0.00 0.00
20260506202058 20 238 3.2 8.0 0.00 0.00 0.00
20260506200558 20 225 9.7 12.9 0.00 0.00 0.00
20260506195059 18 217 9.7 6.4 0.00 0.00 0.00
20260506192100 17 281 8.0 8.0 0.00 0.00 0.00
20260506190601 18 253 3.2 11.3 0.00 0.00 0.00
20260506185102 17 183 11.3 1.6 0.00 0.00 0.00
20260506183603 17 238 6.4 9.7 0.00 0.00 0.00
20260506180604 16 257 9.7 4.8 0.00 0.00 0.00
20260506175105 16 200 9.7 3.2 0.00 0.00 0.00
20260506173606 15 259 4.8 0.0 0.00 0.00 0.00
20260506172106 15 242 11.3 8.0 0.00 0.00 0.00
20260506170607 15 252 8.0 9.7 0.00 0.00 0.00
20260506165108 14 242 6.4 9.7 0.00 0.00 0.00
20260506163609 13 218 8.0 4.8 0.00 0.00 0.00
20260506162110 15 285 6.4 11.3 0.00 0.00 0.00
20260506160611 13 278 8.0 9.7 0.00 0.00 0.00
20260506155112 13 287 6.4 4.8 0.00 0.00 0.00
20260506153614 12 243 3.2 3.2 0.00 0.00 0.00
20260506152115 12 287 8.0 8.0 0.00 0.00 0.00
20260506150616 12 323 8.0 4.8 0.00 0.00 0.00
20260506145117 13 312 0.0 1.6 0.00 0.00 0.00
20260506143618 13 174 0.0 0.0 0.00 0.00 0.00
20260506142120 12 174 0.0 0.0 0.00 0.00 0.00
20260506140621 8 174 0.0 0.0 0.00 0.00 0.00
20260506135123 5 174 0.0 0.0 0.00 0.00 0.00
20260506133624 4 174 0.0 0.0 0.00 0.00 0.00
20260506130626 4 174 0.0 0.0 0.00 0.00 0.00
20260506125128 5 174 0.0 0.0 0.00 0.00 0.00
20260506123629 5 174 0.0 0.0 0.00 0.00 0.00
20260506122131 3 174 0.0 0.0 0.00 0.00 0.00
20260506120632 3 174 0.0 0.0 0.00 0.00 0.00
20260506115133 3 174 0.0 0.0 0.00 0.00 0.00
20260506113634 3 174 0.0 0.0 0.00 0.00 0.00
20260506112135 3 174 0.0 0.0 0.00 0.00 0.00
20260506105137 4 174 0.0 0.0 0.00 0.00 0.00
20260506102140 5 174 0.0 0.0 0.00 0.00 0.00
20260506100641 3 174 0.0 0.0 0.00 0.00 0.00
20260506095142 5 174 0.0 0.0 0.00 0.00 0.00
20260506093643 6 174 0.0 0.0 0.00 0.00 0.00
20260506092145 7 174 0.0 0.0 0.00 0.00 0.00
20260506090646 8 174 0.0 0.0 0.00 0.00 0.00
20260506085147 8 174 0.0 0.0 0.00 0.00 0.00
20260506083648 8 215 0.0 0.0 0.00 0.00 0.00
20260506082149 8 193 0.0 0.0 0.00 0.00 0.00
20260506080650 8 193 0.0 0.0 0.00 0.00 0.00
20260506072153 9 193 0.0 0.0 0.00 0.00 0.00
20260506070655 9 198 1.6 0.0 0.00 0.00 0.00
20260506062158 10 169 3.2 3.2 0.00 0.00 0.00